[[{"header":{"parameterUnit":"m.s-1","parameterCategory":1,"la1":30.2991,"la2":30.254,"lo1":-89.0895,"lo2":-89.0444,"dy":0.0017,"dx":0.0017,"nx":28,"ny":28,"refTime":"2025-08-08T09:00:00:Z","depth":0,"parameterNumber":2,"parameterNumberName":"U-component_of_WINDS"},"data":[0,0,0,0,0,0,0,0,0,0,0,0,0,0,0,0,0,0,0,0,0,0,0,0,0,0,0,0,0,0,0,0,0,0,0,0,0,0,0,0,0,0,0,0,0,0,0,0,0,0,0,0,0,0,0,0,0,0,-4.499,-4.4991,0,-4.505,-4.5051,-4.5052,-4.4953,-4.4949,-4.4946,-4.4943,-4.5003,-4.5008,-4.5013,0,0,0,0,0,0,0,0,0,0,0,0,0,-4.4791,-4.4795,-4.499,-4.4991,-4.4992,-4.505,-4.5051,-4.5052,-4.4953,-4.4949,-4.4945,-4.4941,-4.5002,-4.5007,-4.5013,0,0,0,0,0,0,0,0,0,0,0,0,0,-4.4867,-4.4796,-4.499,-4.495,-4.4947,-4.505,-4.5051,-4.5052,-4.4954,-4.4949,-4.4944,-4.4939,-4.5,-4.5007,-4.5014,-4.5159,0,0,-4.5036,-4.5039,0,0,0,0,0,0,0,0,-4.4863,-4.4874,-4.4955,-4.4953,-4.495,-4.4989,-4.5003,-4.5088,-4.4956,-4.4951,-4.4943,-4.4937,-4.5003,-4.5009,-4.5031,-4.5162,-4.5164,-4.5036,-4.5041,-4.5044,-4.5046,0,0,0,0,0,0,0,-4.4858,-4.4871,-4.5014,-4.4956,-4.4953,-4.4929,-4.4934,-4.5018,-4.5005,-4.4951,-4.4944,-4.4953,-4.5,-4.5025,-4.5032,-4.5165,-4.5036,-4.5042,-4.5047,-4.5049,-4.5418,-4.5423,0,0,0,0,0,0,-4.4857,-4.4867,-4.5012,-4.5016,-4.4893,-4.4936,-4.4942,-4.4981,-4.5003,-4.5002,-4.4957,-4.4948,-4.5015,-4.5024,-4.5034,-4.5204,-4.5044,-4.505,-4.5054,-4.5412,-4.5419,-4.5425,0,0,0,0,0,0,-4.4853,-4.4871,-4.501,-4.494,-4.4956,-4.4945,-4.499,-4.4985,-4.501,-4.5008,-4.5005,-4.4985,-4.5011,-4.5024,-4.5129,-4.5205,-4.5053,-4.506,-4.5406,-4.5414,-4.5422,-4.5547,0,0,0,0,0,0,-4.4848,-4.487,-4.4925,-4.4942,-4.496,-4.5104,-4.4995,-4.499,-4.5022,-4.5011,-4.5033,-4.5032,-4.5008,-4.5119,-4.5136,-4.5212,-4.5065,-4.5399,-4.5409,-4.5419,-4.5536,-4.5559,-4.5578,0,0,0,0,0,-4.4841,-4.4958,-4.4928,-4.4946,-4.5028,-4.5108,-4.5118,-4.509,-4.5029,-4.5084,-4.5083,-4.5031,-4.5195,-4.513,-4.5149,-4.5228,-4.5394,-4.5406,-4.5418,-4.5527,-4.5554,-4.5578,0,0,0,0,0,0,-4.495,-4.4959,-4.4927,-4.5052,-4.5081,-4.5091,-4.516,-4.512,-4.5165,-4.5153,-4.5115,-4.5121,-4.5233,-4.5241,-4.5169,-4.537,-4.5284,-4.5301,-4.536,-4.5386,-4.5407,-4.5401,-4.5071,0,0,0,0,0,-4.4989,-4.5053,-4.5058,-4.5168,-4.5184,-4.517,-4.5204,-4.518,-4.5207,-4.5218,-4.5224,-4.5253,-4.531,-4.5349,-4.5402,-4.5538,-4.5541,-4.5602,-4.5623,-4.564,-4.5654,-4.5726,-4.5753,-4.5465,-4.5465,-4.5465,0,0,-4.5069,-4.5082,-4.5125,-4.5191,-4.5209,-4.5277,-4.5181,-4.5256,-4.5305,-4.5229,-4.5328,-4.5335,-4.5364,-4.5485,-4.5538,-4.5495,-4.5735,-4.5656,-4.567,-4.5674,-4.5741,-4.5769,-4.5793,-4.5474,-4.5472,-4.5471,0,0,-4.5249,-4.5267,-4.536,-4.5381,-4.5411,-4.5401,-4.5424,-4.5442,-4.5443,-4.5542,-4.5487,-4.5545,-4.5646,-4.5668,-4.5693,-4.5885,-4.5838,-4.5903,-4.6012,-4.6082,-4.6105,-4.6125,-4.6191,-4.6216,-4.5918,-4.5918,-4.5919,0,-4.5345,-4.5444,-4.5413,-4.5492,-4.5522,-4.5458,-4.5552,-4.5575,-4.5621,-4.5643,-4.5594,-4.5719,-4.5734,-4.5859,-4.5906,-4.5929,-4.5953,-4.5899,-4.6104,-4.6124,-4.6142,-4.6205,-4.6231,-4.5926,-4.5925,-4.5924,-4.5923,0,-4.556,-4.563,-4.5702,-4.5748,-4.5787,-4.5874,-4.5855,-4.5898,-4.5872,-4.5867,-4.5969,-4.5985,-4.604,-4.6069,-4.6043,-4.6191,-4.6163,-4.611,-4.6022,-4.6177,-4.6236,-4.626,-4.5937,-4.5934,-4.5932,-4.593,0,0,-4.5807,-4.5837,-4.5863,-4.5883,-4.5913,-4.5966,-4.6051,-4.6105,-4.6142,-4.6177,-4.6246,-4.6333,-4.6285,-4.6314,-4.629,-4.6353,-4.6502,-4.6292,-4.6292,-4.6329,-4.6664,-4.6702,-4.673,-4.6472,-4.6477,-4.6481,-4.6661,0,-4.5985,-4.613,-4.6105,-4.6245,-4.6309,-4.625,-4.6323,-4.6349,-4.6348,-4.6402,-4.6401,-4.6463,-4.6395,-4.6412,-4.6471,-4.6471,-4.6568,-4.6458,-4.6535,-4.6538,-4.6527,-4.6761,-4.6801,-4.697,-4.6684,-4.6688,-4.6691,0,-4.6211,-4.6255,-4.6401,-4.6421,-4.6447,-4.6513,-4.6561,-4.6614,-4.6643,-4.6638,-4.6671,-4.6636,-4.672,-4.6634,-4.6748,-4.6674,-4.6704,-4.6709,-4.6715,-4.6719,-4.6622,-4.677,-4.7024,-4.7048,-4.6727,-4.6724,-4.6721,0,-4.6375,-4.647,-4.657,-4.659,-4.6616,-4.6664,-4.6677,-4.6701,-4.6735,-4.6778,-4.6799,-4.6852,-4.6879,-4.692,-4.6901,-4.684,-4.7019,-4.6931,-4.7016,-4.7016,-4.7054,-4.7051,-4.7314,-4.7078,-4.7077,-4.7077,-4.7076,0,-4.6574,-4.6666,-4.6644,-4.6705,-4.6806,-4.6778,-4.6879,-4.6885,-4.6907,-4.6968,-4.6922,-4.698,-4.6952,-4.7009,-4.6994,-4.7091,-4.7104,-4.7102,-4.7096,-4.7105,-4.7105,-4.7122,-4.7109,-4.7084,-4.7082,-4.7081,-4.708,0,-4.6773,-4.6762,-4.6867,-4.6884,-4.689,-4.6964,-4.6978,-4.7035,-4.7031,-4.711,-4.7127,-4.712,-4.7185,-4.717,-4.7241,-4.7231,-4.7352,-4.7333,-4.7342,-4.7337,-4.7422,-4.7413,-4.7703,-4.7739,-4.7482,-4.7484,-4.7486,0,-4.6899,-4.6969,-4.6993,-4.7031,-4.7048,-4.711,-4.7145,-4.7121,-4.7159,-4.7198,-4.7251,-4.7312,-4.7358,-4.7464,-4.7466,-4.7519,-4.75,-4.7598,-4.7508,-4.7514,-4.7499,-4.7494,-4.7501,-4.7615,-4.7618,-4.762,-4.7622,0,-4.7125,-4.7117,-4.7169,-4.7221,-4.7264,-4.7304,-4.7339,-4.7372,-4.7351,-4.7397,-4.7462,-4.7499,-4.7572,-4.7632,-4.7682,-4.7695,-4.7655,-4.7652,-4.7674,-4.7681,-4.7683,-4.7682,-4.7389,-4.7644,-4.7642,-4.764,-4.7639,-4.7638,-4.729,-4.7349,-4.7375,-4.7436,-4.746,-4.7494,-4.7548,-4.7552,-4.7606,-4.7663,-4.7646,-4.7721,-4.7749,-4.7812,-4.7832,-4.789,-4.7853,-4.7885,-4.7893,-4.7901,-4.791,-4.7677,-4.7899,-4.7898,-4.7898,-4.7897,-4.7897,0,-4.7511,-4.7526,-4.7582,-4.7633,-4.7681,-4.7641,-4.7678,-4.772,-4.7786,-4.7816,-4.7864,-4.7939,-4.7998,-4.8006,-4.8061,-4.8106,-4.8089,-4.8121,-4.8116,-4.812,-4.7941,-4.7915,-4.8134,-4.8134,-4.8134,-4.8134,-4.8134,-4.8134,-4.7632,-4.7729,-4.7724,-4.7833,-4.7847,-4.792,-4.7944,-4.7975,-4.7999,-4.8085,-4.8134,-4.8139,-4.816,-4.8217,-4.8269,-4.827,-4.8291,-4.833,-4.8324,-4.8156,-4.8132,-4.811,-4.8085,-4.8336,-4.8336,-4.8497,-4.8499,-4.85]},{"header":{"parameterUnit":"m.s-1","parameterCategory":1,"la1":30.2991,"la2":30.254,"lo1":-89.0895,"lo2":-89.0444,"dy":0.0017,"dx":0.0017,"nx":28,"ny":28,"refTime":"2025-08-08T09:00:00:Z","depth":0,"parameterNumber":3,"parameterNumberName":"V-component_of_WINDS"},"data":[0,0,0,0,0,0,0,0,0,0,0,0,0,0,0,0,0,0,0,0,0,0,0,0,0,0,0,0,0,0,0,0,0,0,0,0,0,0,0,0,0,0,0,0,0,0,0,0,0,0,0,0,0,0,0,0,0,0,0.8413,0.8411,0,0.8269,0.8268,0.8266,0.8241,0.8242,0.8243,0.8244,0.809,0.8085,0.8079,0,0,0,0,0,0,0,0,0,0,0,0,0,0.8659,0.8655,0.8413,0.8411,0.8409,0.8269,0.8267,0.8266,0.824,0.8242,0.8243,0.8245,0.8091,0.8085,0.8079,0,0,0,0,0,0,0,0,0,0,0,0,0,0.8537,0.8653,0.8413,0.838,0.8376,0.827,0.8267,0.8265,0.824,0.8242,0.8244,0.8246,0.8094,0.8086,0.8078,0.7993,0,0,0.8054,0.8051,0,0,0,0,0,0,0,0,0.8544,0.8528,0.8387,0.8382,0.8377,0.8275,0.8298,0.8173,0.824,0.8291,0.8244,0.8246,0.8149,0.8137,0.8106,0.7986,0.7979,0.8053,0.8049,0.8045,0.8043,0,0,0,0,0,0,0,0.8553,0.8534,0.8356,0.8385,0.8379,0.837,0.8355,0.8274,0.8211,0.8287,0.8285,0.8269,0.8147,0.8113,0.8102,0.7977,0.8054,0.8047,0.8042,0.8039,0.778,0.7778,0,0,0,0,0,0,0.8568,0.8542,0.836,0.8351,0.8467,0.8365,0.8347,0.8306,0.8212,0.82,0.8267,0.8268,0.8126,0.8111,0.8096,0.7991,0.8045,0.8038,0.8033,0.7782,0.7779,0.7777,0,0,0,0,0,0,0.8574,0.8552,0.8366,0.8446,0.8422,0.8358,0.8312,0.8302,0.8268,0.8198,0.8186,0.8245,0.8127,0.8108,0.8019,0.7985,0.8034,0.8027,0.7784,0.7781,0.7778,0.7778,0,0,0,0,0,0,0.8581,0.8554,0.8522,0.8446,0.8418,0.8293,0.831,0.8298,0.8256,0.8255,0.8173,0.8161,0.8127,0.8031,0.8012,0.7975,0.8021,0.7787,0.7783,0.7779,0.7781,0.7776,0.7771,0,0,0,0,0,0.859,0.8526,0.8521,0.8499,0.8377,0.8291,0.8275,0.8239,0.8253,0.822,0.8175,0.8164,0.7993,0.8023,0.8,0.796,0.7789,0.7784,0.7779,0.7783,0.7777,0.7771,0,0,0,0,0,0,0.8598,0.8516,0.8509,0.8419,0.8363,0.8287,0.8244,0.8232,0.8169,0.8171,0.8126,0.8108,0.8022,0.7982,0.8018,0.7873,0.7892,0.7882,0.7902,0.7895,0.789,0.7901,0.8014,0,0,0,0,0,0.859,0.8529,0.846,0.8387,0.836,0.8307,0.8268,0.8246,0.8184,0.816,0.8108,0.8047,0.7979,0.7935,0.7869,0.7776,0.7757,0.7738,0.7733,0.7729,0.772,0.7668,0.7659,0.7761,0.7761,0.7761,0,0,0.8571,0.8519,0.8483,0.8388,0.8342,0.8278,0.8287,0.8219,0.8171,0.8148,0.8063,0.8023,0.7952,0.7861,0.7819,0.7825,0.7688,0.7723,0.772,0.7713,0.7662,0.7653,0.7644,0.7758,0.7758,0.7759,0,0,0.8505,0.846,0.8395,0.8349,0.828,0.8246,0.8231,0.8157,0.8131,0.8045,0.8027,0.7968,0.7853,0.7803,0.7763,0.7681,0.7668,0.766,0.7632,0.7582,0.7574,0.7567,0.7537,0.7527,0.7653,0.7653,0.7653,0,0.849,0.8396,0.8362,0.8296,0.8255,0.8235,0.8168,0.8124,0.8036,0.8007,0.8017,0.7873,0.7823,0.7721,0.7702,0.767,0.7649,0.7668,0.7579,0.7571,0.7563,0.7534,0.7523,0.7652,0.7652,0.7652,0.7652,0,0.8381,0.8316,0.8271,0.819,0.8144,0.8077,0.8032,0.7989,0.7971,0.7935,0.7848,0.7789,0.771,0.7685,0.7665,0.758,0.7586,0.7588,0.7605,0.7554,0.7525,0.7514,0.7651,0.7651,0.7652,0.7652,0,0,0.8313,0.8217,0.8201,0.8164,0.8087,0.8035,0.7968,0.7895,0.7858,0.7798,0.774,0.7644,0.7646,0.76,0.7575,0.7531,0.747,0.7538,0.7536,0.7527,0.7371,0.737,0.7357,0.7463,0.746,0.7458,0.7377,0,0.8237,0.8119,0.8088,0.7987,0.7926,0.7907,0.7849,0.7794,0.776,0.7702,0.7662,0.7595,0.7603,0.7575,0.7532,0.7487,0.7438,0.7492,0.7405,0.7403,0.7422,0.7343,0.734,0.7266,0.7366,0.7364,0.7363,0,0.8132,0.8074,0.7968,0.79,0.7874,0.7822,0.7752,0.7698,0.7636,0.7614,0.7564,0.7544,0.7471,0.7494,0.7393,0.7431,0.7394,0.7367,0.7363,0.7352,0.7378,0.7328,0.7242,0.723,0.7345,0.7347,0.7348,0,0.8093,0.7988,0.7911,0.788,0.7799,0.7763,0.7728,0.7668,0.7626,0.7565,0.7537,0.7468,0.7429,0.7375,0.7336,0.7356,0.7238,0.7257,0.7216,0.7216,0.7189,0.7191,0.7095,0.7168,0.7169,0.7169,0.7169,0,0.8011,0.7946,0.7892,0.7844,0.7771,0.7736,0.7664,0.7627,0.7575,0.7518,0.7498,0.7445,0.7397,0.7337,0.7306,0.7227,0.721,0.7188,0.7181,0.7189,0.7192,0.7163,0.7166,0.7166,0.7166,0.7167,0.7167,0,0.7953,0.7915,0.783,0.7762,0.7743,0.7692,0.7633,0.7586,0.7552,0.7481,0.7462,0.7407,0.7336,0.7293,0.7202,0.7181,0.7093,0.7088,0.7115,0.7111,0.7071,0.7075,0.6951,0.6932,0.702,0.7019,0.7019,0,0.7903,0.7853,0.7781,0.7744,0.7708,0.7647,0.7606,0.7569,0.7526,0.7453,0.7414,0.7342,0.7283,0.717,0.7121,0.7051,0.7043,0.7004,0.7032,0.7043,0.7041,0.7044,0.7038,0.6999,0.6998,0.6998,0.6997,0,0.7817,0.7801,0.7743,0.7678,0.763,0.7576,0.7523,0.7493,0.7447,0.7399,0.7328,0.7282,0.7191,0.712,0.7047,0.7008,0.6994,0.699,0.6976,0.6983,0.7001,0.699,0.7101,0.6992,0.6992,0.6993,0.6993,0.6993,0.776,0.7715,0.7659,0.7594,0.7551,0.7503,0.7455,0.7416,0.7357,0.7282,0.7264,0.7189,0.7128,0.7029,0.6989,0.6929,0.6934,0.6914,0.6909,0.6905,0.6903,0.7013,0.6915,0.6915,0.6915,0.6915,0.6915,0,0.7672,0.7636,0.7577,0.7505,0.7455,0.745,0.7391,0.7349,0.7284,0.723,0.7173,0.7091,0.7023,0.6969,0.6899,0.686,0.6852,0.6843,0.6844,0.6835,0.6903,0.6921,0.685,0.6851,0.6851,0.6851,0.6851,0.6851,0.762,0.7545,0.7522,0.7425,0.7388,0.7316,0.7283,0.7237,0.7195,0.7105,0.7049,0.7016,0.6962,0.6887,0.6824,0.681,0.6784,0.6775,0.676,0.6823,0.683,0.6837,0.6854,0.677,0.677,0.6697,0.6696,0.6696]}]]